Flag for Tanzania Weather past 2 weeks in Zanzibar City, Tanzania

Now
91 °F

Partly sunny.


Feels Like: 99 °F
Forecast: 82 / 88 °F
Wind: 8 mph from East

Location: Mombasa Airport

Current Time: Mar 1, 2015 at 2:50:40 PM

Latest Report: Mar 1, 2015 at 2:00 PM


Visibility: N/A

Pressure: 29.80 "Hg

Humidity: 52%

Dew point: 72 °F

Location of Zanzibar CityLocation

Historic Weather in Zanzibar City — Graph

°F

Zanzibar City temperature yesterday

Maximum temperature yesterday: 95 °F (at 12:00 PM)
Minimum temperature yesterday: 77 °F (at 6:00 AM)
Average temperature yesterday: 85 °F

Past Weeks' High & Low Weather Summary

 TemperatureHumidityPressure
High95 °F (Feb 28, 12:00 PM)94% (Feb 16, 6:00 AM)29.95 "Hg (Feb 16, 6:00 AM)
Low75 °F (Feb 20, 6:00 AM)20% (Feb 23, 11:00 PM)29.68 "Hg (Feb 28, 4:00 PM)
Average84 °F72%29.84 "Hg
* Reported Feb 14 1:00 PM — Mar 1 1:00 PM, Zanzibar City, Weather by CustomWeather, © 2015

Note: Actual official high and low records may vary slightly from our data, if they occured in-between our weather recording intervals... More about our weather records

Advertising

Zanzibar City weather history for previous 24 hours

 ConditionsComfort  
Time TempWeatherWind HumidityBarometerVisibility
1:00 PM
Sun, Mar 1
90 °FBroken clouds.3 mph52%29.83 "HgN/A
12:00 PM90 °FBroken clouds.8 mph55%29.86 "HgN/A
11:00 AM86 °FPartly sunny.7 mph62%29.89 "HgN/A
10:00 AM84 °FBroken clouds.6 mph66%29.89 "HgN/A
9:00 AM82 °FBroken clouds.7 mph70%29.89 "HgN/A
8:00 AM81 °FPartly sunny.6 mph79%29.86 "HgN/A
7:00 AM77 °FPartly sunny.3 mph89%29.83 "HgN/A
10:00 PM
Sat, Feb 28
82 °FPassing clouds.9 mph79%29.80 "HgN/A
9:00 PM82 °FPassing clouds.10 mph79%29.77 "HgN/A
8:00 PM82 °FPassing clouds.14 mph79%29.74 "HgN/A
7:00 PM82 °FPassing clouds.13 mph79%29.74 "HgN/A
6:00 PM84 °FPassing clouds.14 mph70%29.71 "HgN/A
5:00 PM88 °FPassing clouds.14 mph59%29.68 "HgN/A
4:00 PM90 °FPassing clouds.15 mph52%29.68 "HgN/A
3:00 PM91 °FPassing clouds.16 mph59%29.71 "HgN/A
2:00 PM93 °FPassing clouds.16 mph53%29.71 "HgN/A
Weather by CustomWeather, © 2015

See weather overviewHow to use our weather pages